Other Surface Observations
Issued by NWS

Home | Current Version | Previous Version | Text Only | Print | Product List | Glossary On
Versions: 1 2 3 4 5 6 7 8 9 10 11 12 13 14 15 16 17 18 19 20 21 22 23 24 25 26 27 28 29 30 31 32 33 34 35 36 37 38 39 40 41 42 43 44 45 46 47 48 49 50
000
SXUS52 KTAE 282318
OSOTAE
OSOTAE
North Florida/South Alabama/Southwest Georgia Weather Roundup
National Weather Service Tallahassee Florida
700 PM EDT SUN AUG 28 2016

Note: "fair" indicates few or no clouds below 12,000 feet with no
significant weather and/or obstructions to visibility.

!FLZ017-115-028-034-025-290000
...North Florida...

CITY           SKY/WX    TMP DP  RH WIND       PRES   REMARKS
TALLAHASSEE    MOSUNNY   93  68  43 NE8       29.95S HX  97
APALACHICOLA   MOSUNNY   88  77  69 E7        29.94S HX 100
PERRY          SUNNY     91  71  51 CALM      29.95S HX  97
CROSS CITY     SUNNY     90  73  58 NE7       29.93S HX  98
JACKSONVILLE   MOSUNNY   85  74  69 E16       29.98F HX  92
$$

!FLZ112-006-005-002-011-290000
...Florida Panhandle...

CITY           SKY/WX    TMP DP  RH WIND       PRES   REMARKS
MARIANNA       MOSUNNY   91  69  48 E6        29.94S HX  96
BONIFAY        FAIR      88  76  67 CALM      29.96S HX  99
PANAMA CITY NW TSTM      79  74  84 NE12G31   29.97R
TYNDALL AFB    PTSUNNY   82  79  92 VRB2      29.94F THUNDER HX  92
TYND DRONE APT FAIR      82  79  92 CALM      29.94S HX  92
DE FUNIAK SPR  FAIR      86  73  64 NE3       29.97S HX  92
EGLIN AFB      PTSUNNY   87  75  69 W2        29.95F HX  96
DESTIN         MOSUNNY   89  77  67 VRB3      29.95S HX 101
HURLBURT       PTSUNNY   86  75  68 S3        29.94F HX  95
CRESTVIEW      CLOUDY    86  73  65 CALM      29.97F HX  93
PENSACOLA      PTSUNNY   86  75  69 VRB5      29.96S HX  95
$$

!ALZ063-066-290000
...South Alabama...

CITY           SKY/WX    TMP DP  RH WIND       PRES   REMARKS
DOTHAN         SUNNY     88  70  55 NE6       30.01S HX  93
OZARK CAIRNS   SUNNY     89  68  48 NE7       29.97S HX  93
FT RUCKER HELI SUNNY     89  67  47 CALM      29.96S HX  92
RUCKER HELI 3  NOT AVBL
RUCKER HELI 2  FAIR      91  66  43 E7        29.96S HX  93
FLORALA APT    CLOUDY    81  76  84 CALM      29.98F
ANDALUSIA      CLOUDY    90  73  57 S5        29.97S HX  98
TROY           SUNNY     91  69  48 NE5       29.99S HX  96
EUFALA         FAIR      95  66  38 NE6       29.97S HX  98
MOBILE         CLOUDY    75  73  93 CALM      30.00F
$$

!GAZ120>161-290000
...Southwest and South Central Georgia...

CITY           SKY/WX    TMP DP  RH WIND       PRES   REMARKS
THOMASVILLE    FAIR      91  70  49 E8        29.98S HX  97
BAINBRIDGE     SUNNY     91  64  40 E12       29.97R HX  93
MOODY AFB      MOSUNNY   86  72  62 E12       29.98R HX  92
VALDOSTA       MOSUNNY   89  73  59 NE9       29.97S HX  97
MOULTRIE       SUNNY     90  70  51 E9        29.99R HX  95
BLAKELY        SUNNY     95  63  34 E5        29.97S HX  96
ALBANY         MOSUNNY   93  64  38 SE8       29.99S HX  94
TIFTON         FAIR      89  71  54 SE7       29.99S HX  94
FITZGERALD     FAIR      92  76  58 SE5       30.01S HX 105
CORDELE        FAIR      96  65  35 E8        29.99S HX  99
AMERICUS       FAIR      91  59  33 E10       30.01R HX  90
HOMERVILLE     FAIR      88  73  62 SE9       30.00S HX  96
$$

!GMZ750-755-770-775-290000
...Coastal and Buoy Obs...

STATION/POSITION TIME  TEMP    WIND        PRES    VSBY  WAVE
                       AIR SEA DIR/SP/G                  HT/PER
                 (UTC) (F)     (DEG/KT/KT) (MB)    (MI)  (FT/S)
KEATON BEACH     2300   88      50/  2/  3 1013.4F
CEDAR KEY        2300   83      30/  2/  3 1013.9S
C TOWER          2300   86      70/ 14/ 15 1014.2F
APALACHICOLA BUO 2250   86 86   30/ 12/ 16 1013.0S         3/ 5
PANAMA CITY BUOY 2250   85 85   80/ 12/ 14 1013.6R         4/ 5
MOBILE BUOY      2300   80 86   30/  4/  6 1014.0S
ORANGE BCH AL BU 2250   84 85  150/  6/  8 1014.8R         3/ 5
$$




USA.gov is the U.S. government's official web portal to all federal, state and local government web resources and services.